GW6305 Weather Reports


time (UTC)temp
C
wind
direction
speed
KPH
gust
KPH
rain 1hr
cm
rain 24hr
cm
rain mn
cm
humidity
%
barometer
mb
20260504110537 1 65 0.0 0.0 0.00 0.00 0.00 89 1011.7
20260504100453 1 164 0.0 0.0 0.00 0.00 0.00 91 1011.7
20260504081846 3 164 0.0 0.0 0.00 0.00 0.00 85 1012.0
20260504081343 3 164 0.0 0.0 0.00 0.00 0.00 85 1011.9
20260504080838 3 164 0.0 0.0 0.00 0.00 0.00 86 1012.1
20260504080336 3 164 0.0 0.0 0.00 0.00 0.00 87 1011.9
20260504070303 3 164 0.0 0.0 0.00 0.00 0.00 85 1011.8
20260504060224 4 164 0.0 0.0 0.00 0.00 0.00 79 1011.6
20260504050651 5 164 0.0 0.0 0.00 0.00 0.00 80 1011.8
20260504050148 5 164 0.0 0.0 0.00 0.00 0.00 81 1011.9
20260504045646 5 164 0.0 0.0 0.00 0.00 0.00 81 1011.6
20260504045146 5 164 0.0 0.0 0.00 0.00 0.00 80 1011.8
20260504044644 5 164 0.0 0.0 0.00 0.00 0.00 79 1012.0
20260504044140 5 164 0.0 0.0 0.00 0.00 0.00 79 1011.9
20260504043637 5 164 0.0 0.0 0.00 0.00 0.00 78 1011.8
20260504043135 5 164 0.0 0.0 0.00 0.00 0.00 78 1011.7
20260504042632 5 164 0.0 0.0 0.00 0.00 0.00 79 1011.5
20260504042128 5 164 0.0 0.0 0.00 0.00 0.00 79 1011.9
20260504041624 6 164 0.0 0.0 0.00 0.00 0.00 81 1011.6
20260504041120 6 164 0.0 0.0 0.00 0.00 0.00 80 1011.7
20260504040618 6 164 0.0 0.0 0.00 0.00 0.00 77 1011.7
20260504040114 6 164 0.0 0.0 0.00 0.00 0.00 79 1011.6
20260504035611 6 164 0.0 0.0 0.00 0.00 0.00 79 1011.5
20260504035108 6 164 0.0 0.0 0.00 0.00 0.00 77 1011.6
20260504034606 6 164 0.0 0.0 0.00 0.00 0.00 78 1011.6
20260504034102 6 164 0.0 0.0 0.00 0.00 0.00 78 1011.5
20260504033600 6 164 0.0 0.0 0.00 0.00 0.00 76 1011.5
20260504033057 6 164 0.0 0.0 0.00 0.00 0.00 75 1011.6
20260504032554 6 164 0.0 0.0 0.00 0.00 0.00 73 1011.5
20260504032051 6 164 0.0 0.0 0.00 0.00 0.00 75 1011.4
20260504031548 7 164 0.0 0.0 0.00 0.00 0.00 73 1011.4
20260504031044 7 164 0.0 0.0 0.00 0.00 0.00 74 1011.5
20260504030542 7 164 0.0 0.0 0.00 0.00 0.00 73 1011.4
20260504030037 7 164 0.0 0.0 0.00 0.00 0.00 72 1011.3
20260504025535 7 164 0.0 0.0 0.00 0.00 0.00 60 1011.2
20260504025031 7 164 0.0 0.0 0.00 0.00 0.00 58 1011.4
20260504024529 7 164 0.0 0.0 0.00 0.00 0.00 58 1011.4
20260504024025 7 164 0.0 0.0 0.00 0.00 0.00 58 1011.4
20260504023522 7 164 0.0 0.0 0.00 0.00 0.00 55 1011.5
20260504023018 8 164 0.0 0.0 0.00 0.00 0.00 55 1011.4
20260504022514 8 164 0.0 0.0 0.00 0.00 0.00 55 1011.5
20260504022011 8 164 0.0 0.0 0.00 0.00 0.00 55 1011.5
20260504021509 8 164 0.0 0.0 0.00 0.00 0.00 55 1011.6
20260504021006 8 164 0.0 0.0 0.00 0.00 0.00 55 1011.6
20260504020502 8 164 0.0 0.0 0.00 0.00 0.00 54 1011.4
20260504015958 8 164 0.0 0.0 0.00 0.00 0.00 53 1011.5
20260504015454 8 164 0.0 0.0 0.00 0.00 0.00 53 1011.3
20260504014950 8 164 0.0 0.0 0.00 0.00 0.00 52 1011.5
20260504014447 8 164 0.0 0.0 0.00 0.00 0.00 53 1011.4
20260504013943 8 164 0.0 0.0 0.00 0.00 0.00 53 1011.2
20260504013442 8 164 0.0 0.0 0.00 0.00 0.00 53 1011.4
20260504012938 9 164 0.0 0.0 0.00 0.00 0.00 51 1011.2
20260504012436 9 164 0.0 0.0 0.00 0.00 0.00 51 1011.3
20260504011933 9 164 0.0 0.0 0.00 0.00 0.00 51 1010.9
20260504011430 9 164 0.0 0.0 0.00 0.00 0.00 51 1011.2
20260504010926 9 164 0.0 0.0 0.00 0.00 0.00 50 1011.0
20260504010422 9 164 0.0 0.0 0.00 0.00 0.00 50 1010.8
20260504005918 9 164 0.0 0.0 0.00 0.00 0.00 48 1011.1
20260504005415 9 164 0.0 0.0 0.00 0.00 0.00 50 1010.9
20260504004913 10 164 0.0 0.0 0.00 0.00 0.00 50 1010.8
20260504004410 10 164 0.0 0.0 0.00 0.00 0.00 50 1010.8
20260504003907 10 164 0.0 0.0 0.00 0.00 0.00 48 1010.9
20260504003403 10 164 0.0 0.0 0.00 0.00 0.00 47 1010.7
20260504002900 10 164 0.0 0.0 0.00 0.00 0.00 45 1010.9
20260504002357 11 164 0.0 0.0 0.00 0.00 0.00 45 1010.9
20260504001855 11 164 0.0 0.0 0.00 0.00 0.00 46 1010.5
20260504001352 11 164 0.0 0.0 0.00 0.00 0.00 45 1010.6
20260504000848 11 164 0.0 0.0 0.00 0.00 0.00 42 1010.6
20260504000346 11 164 0.0 0.0 0.00 0.00 0.00 41 1010.7
20260503235843 11 159 0.0 0.0 0.00 0.00 0.00 43 1010.7
20260503235341 12 159 0.0 0.0 0.00 0.00 0.00 41 1010.5
20260503234838 12 159 0.0 0.0 0.00 0.00 0.00 41 1010.5
20260503234336 12 263 1.6 1.6 0.00 0.00 0.00 39 1010.4
20260503233833 12 263 0.0 3.2 0.00 0.00 0.00 37 1010.3
20260503233329 12 329 0.0 3.2 0.00 0.00 0.00 36 1010.4
20260503232825 12 265 0.0 1.6 0.00 0.00 0.00 37 1010.3
20260503232323 13 310 3.2 3.2 0.00 0.00 0.00 36 1010.1
20260503231821 13 334 1.6 4.8 0.00 0.00 0.00 36 1010.1
20260503231318 13 270 1.6 4.8 0.00 0.00 0.00 35 1010.4
20260503230813 13 304 1.6 4.8 0.00 0.00 0.00 35 1010.1
20260503230311 13 59 0.0 9.7 0.00 0.00 0.00 36 1010.1
20260503225808 13 93 1.6 3.2 0.00 0.00 0.00 35 1010.3
20260503225304 13 325 3.2 3.2 0.00 0.00 0.00 36 1010.0
20260503224800 13 351 4.8 6.4 0.00 0.00 0.00 34 1009.9
20260503224258 13 353 1.6 6.4 0.00 0.00 0.00 35 1010.3
20260503223755 13 352 3.2 3.2 0.00 0.00 0.00 35 1009.9
20260503223253 13 332 4.8 11.3 0.00 0.00 0.00 34 1010.0
20260503222749 14 353 4.8 6.4 0.00 0.00 0.00 33 1009.9
20260503222247 14 334 3.2 6.4 0.00 0.00 0.00 34 1010.0
20260503221745 14 346 4.8 11.3 0.00 0.00 0.00 33 1010.1
20260503221243 13 300 3.2 9.7 0.00 0.00 0.00 34 1010.1
20260503220739 13 349 3.2 11.3 0.00 0.00 0.00 34 1009.9
20260503220236 13 294 1.6 4.8 0.00 0.00 0.00 34 1010.0
20260503215732 13 344 6.4 9.7 0.00 0.00 0.00 33 1010.1
20260503215230 13 250 4.8 9.7 0.00 0.00 0.00 33 1010.1
20260503214728 14 356 4.8 6.4 0.00 0.00 0.00 33 1010.1
20260503214224 14 8 6.4 6.4 0.00 0.00 0.00 33 1010.0
20260503213722 15 311 1.6 9.7 0.00 0.00 0.00 33 1009.8
20260503213219 15 277 6.4 6.4 0.00 0.00 0.00 32 1009.6
20260503212716 15 359 6.4 6.4 0.00 0.00 0.00 33 1009.8
20260503212214 14 342 4.8 6.4 0.00 0.00 0.00 33 1009.7
20260503211711 15 331 4.8 6.4 0.00 0.00 0.00 33 1009.7
20260503211207 15 153 3.2 6.4 0.00 0.00 0.00 33 1009.8
20260503210703 14 2 1.6 3.2 0.00 0.00 0.00 34 1009.6
20260503210200 14 6 3.2 20.9 0.00 0.00 0.00 32 1009.5
20260503205655 15 349 3.2 6.4 0.00 0.00 0.00 32 1009.5
20260503205152 15 301 3.2 11.3 0.00 0.00 0.00 32 1009.7
20260503204649 14 340 9.7 11.3 0.00 0.00 0.00 31 1009.6
20260503204146 14 322 3.2 9.7 0.00 0.00 0.00 32 1009.6
20260503203643 14 287 3.2 16.1 0.00 0.00 0.00 31 1009.6
20260503203141 14 285 3.2 9.7 0.00 0.00 0.00 32 1009.7
20260503202638 14 308 4.8 4.8 0.00 0.00 0.00 31 1009.7
20260503202136 14 334 3.2 11.3 0.00 0.00 0.00 30 1010.0
20260503201634 14 347 3.2 4.8 0.00 0.00 0.00 32 1009.8
20260503201131 15 329 3.2 9.7 0.00 0.00 0.00 31 1009.7
20260503200627 15 285 3.2 12.9 0.00 0.00 0.00 31 1009.7
20260503200124 15 3 9.7 12.9 0.00 0.00 0.00 29 1009.6
20260503195621 14 349 11.3 14.5 0.00 0.00 0.00 29 1009.8
20260503195118 13 333 6.4 12.9 0.00 0.00 0.00 32 1009.9
20260503194615 13 308 4.8 9.7 0.00 0.00 0.00 32 1010.0
20260503194109 13 335 6.4 11.3 0.00 0.00 0.00 31 1010.0
20260503193607 13 313 4.8 14.5 0.00 0.00 0.00 31 1010.3
20260503193102 13 351 9.7 11.3 0.00 0.00 0.00 29 1010.5
20260503192558 14 356 6.4 12.9 0.00 0.00 0.00 30 1010.3
20260503192054 13 312 1.6 4.8 0.00 0.00 0.00 30 1010.4
20260503191551 14 359 9.7 12.9 0.00 0.00 0.00 30 1010.4
20260503191048 14 273 1.6 6.4 0.00 0.00 0.00 34 1010.5
20260503190544 13 295 4.8 6.4 0.00 0.00 0.00 32 1010.6
20260503190042 13 358 3.2 12.9 0.00 0.00 0.00 31 1010.7
20260503185538 13 299 6.4 12.9 0.00 0.00 0.00 31 1011.0
20260503185038 13 353 1.6 11.3 0.00 0.00 0.00 31 1010.6
20260503184534 13 355 3.2 9.7 0.00 0.00 0.00 32 1010.8
20260503184031 13 355 3.2 6.4 0.00 0.00 0.00 30 1010.9
20260503183528 13 330 6.4 11.3 0.00 0.00 0.00 32 1010.9
20260503183025 13 321 9.7 14.5 0.00 0.00 0.00 30 1011.1
20260503182523 13 338 9.7 11.3 0.00 0.00 0.00 33 1010.9
20260503182021 13 194 3.2 9.7 0.00 0.00 0.00 32 1011.2
20260503181518 13 304 0.0 4.8 0.00 0.00 0.00 33 1011.0
20260503181014 12 265 6.4 6.4 0.00 0.00 0.00 34 1011.3
20260503180511 12 344 6.4 16.1 0.00 0.00 0.00 32 1010.9
20260503180008 12 284 6.4 11.3 0.00 0.00 0.00 35 1011.1
20260503175506 12 344 3.2 9.7 0.00 0.00 0.00 34 1011.2
20260503175002 11 358 3.2 4.8 0.00 0.00 0.00 35 1011.3
20260503174500 11 29 8.0 11.3 0.00 0.00 0.00 34 1011.5
20260503173955 11 276 3.2 6.4 0.00 0.00 0.00 35 1011.2
20260503173451 11 330 9.7 12.9 0.00 0.00 0.00 36 1011.4
20260503172948 11 319 3.2 11.3 0.00 0.00 0.00 35 1011.6
20260503172446 11 349 3.2 14.5 0.00 0.00 0.00 34 1011.6
20260503171942 11 317 4.8 11.3 0.00 0.00 0.00 35 1011.6
20260503171439 11 338 3.2 4.8 0.00 0.00 0.00 35 1011.5
20260503170936 11 11 6.4 9.7 0.00 0.00 0.00 35 1011.5
20260503170432 11 9 9.7 12.9 0.00 0.00 0.00 33 1011.8
20260503150825 8 353 11.3 12.9 0.00 0.00 0.00 38 1012.4
20260503150321 8 8 4.8 9.7 0.00 0.00 0.00 39 1012.2
20260503140245 7 9 8.0 12.9 0.00 0.00 0.00 46 1012.3
20260503131215 5 344 3.2 4.8 0.00 0.00 0.00 60 1012.8
20260503130712 5 47 1.6 3.2 0.00 0.00 0.00 62 1012.8
20260503130209 5 23 1.6 4.8 0.00 0.00 0.00 63 1012.8
20260503120135 4 36 0.0 3.2 0.00 0.00 0.00 66 1012.8